Regional Weather Roundup
Issued by NWS Charleston, SC

Current Version | Previous Version | Text Only | Print | Product List | Glossary Off
Versions: 1 2 3 4 5 6 7 8 9 10 11 12 13 14 15 16 17 18 19 20 21 22 23 24 25 26 27 28 29 30 31 32 33 34 35 36 37 38 39 40 41 42 43 44 45 46 47 48 49 50
000 ASUS42 KCHS 270127 RWRCHS REGIONAL WEATHER ROUNDUP NATIONAL WEATHER SERVICE CHARLESTON SC 900 PM EDT SUN MAR 26 2017 NOTE: "FAIR" INDICATES FEW OR NO CLOUDS BELOW 12,000 FEET WITH NO SIGNIFICANT WEATHER AND/OR OBSTRUCTIONS TO VISIBILITY. NOT ALL STATIONS ARE QUALITY CONTROLLED. USE DATA WITH CAUTION... ESPECIALLY DEWPOINT OBSERVATIONS. SCZ027-030-031-034>040-042>050-270200- ...SOUTHEAST SOUTH CAROLINA... CITY SKY/WX TMP DP RH WIND PRES REMARKS N CHARLESTON PTCLDY 66 57 72 SE8 30.15R WATERFRONT PRK N/A 66 61 84 S7 30.14S JOHNS ISLAND FAIR 68 59 73 SE5 30.16R PINOPOLIS N/A 70 59 68 VRB3 30.06S MONCKS CORNER CLOUDY 66 55 68 S3 30.16R SUMMERVILLE CLOUDY 68 57 68 SE3 30.16R BEAUFORT MCAS CLEAR 69 62 78 SE6 30.15R BEAUFORT ARPT FAIR 64 61 88 SE3 30.15R HILTON HEAD IS CLEAR 64 63 94 CALM 30.16R WALTERBORO CLEAR 64 59 82 SE5 30.16R ALLENDALE FAIR 66 59 77 SE6 30.13R ...SOUTHERN MIDLANDS AND PEE DEE... CITY SKY/WX TMP DP RH WIND PRES REMARKS GEORGETOWN FAIR 61 59 94 CALM 30.18R KINGSTREE CLOUDY 68 54 60 SE8 30.16R ORANGEBURG CLEAR 65 58 78 SE5 30.13R BARNWELL FAIR 68 61 77 SE8 30.13R AIKEN FAIR 64 57 77 SE8 30.15R MANNING FAIR 68 54 60 S3 30.15R COLUMBIA PTCLDY 70 57 63 S9 30.11R SUMTER CLEAR 68 55 62 SE6 30.11R FLORENCE PTCLDY 68 56 65 SE13 30.15R MYRTLE BEACH CLEAR 64 59 82 SE17 30.18S N MYRTLE BEACH CLEAR 65 59 81 S9G17 30.17S $$ GAZ063-065-086>088-099>101-113>116-118-119-134>141-150-270200- ...SOUTHEAST GEORGIA... CITY SKY/WX TMP DP RH WIND PRES REMARKS SAVANNAH ARPT CLEAR 67 57 70 S10 30.14R HUNTER AAF CLEAR 66 62 87 SE6 30.12R FORT STEWART CLEAR 65 58 78 SE6 30.11R STATESBORO CLOUDY 70 61 74 SE9 30.12S SYLVANIA CLEAR N/A N/A N/A CALM 30.14R CLAXTON FAIR N/A N/A N/A E3 30.13R ...CSRA...CENTRAL AND FAR SOUTHEAST GEORGIA... CITY SKY/WX TMP DP RH WIND PRES REMARKS THOMSON CLOUDY 69 58 65 S5 30.13R AUGUSTA-BUSH PTCLDY 72 59 63 SE10 30.09R AUGUSTA-DANIEL PTCLDY 72 57 59 SE10 30.10R SWAINSBORO FAIR 70 59 68 SE7 30.11R VIDALIA PTCLDY 72 59 64 SE8 30.11R EASTMAN FAIR 74 47 39 SE3 30.10S HAZLEHURST FAIR 74 59 60 SE6 30.09R ALMA CLEAR 71 57 61 E7 30.10R WAYCROSS CLEAR 73 62 68 SE8 30.11R JESUP FAIR 68 59 73 SE3 30.13R BAXLEY FAIR 70 63 78 SE5 30.11R BRUNSWICK PTCLDY 68 63 83 SE5 30.14R SAINT SIMONS CLEAR 66 61 84 SE9 30.13R $$ SCZ027-028-034-036>038-045-046-048>050-GAZ119-141-270200- ...LAKE AND SUPPLEMENTAL COASTAL OBSERVATIONS... STATION/POSITION TIME TEMP WIND PRES WAVE SWELL AIR SEA DIR/SP/G HT/PER HT/PER/DIR (UTC) (F) (DEG/KT/KT) (MB) (FT/S) (FT/S/D) WINYAH BAY 0045 64 140/ 6 1021.0S LAKE MURRAY 0020 69 150/ 11/ 13 1018.6 ACE BASIN NERRS 0030 64 CALM 1021.0R FORT PULASKI 0100 65 63 160/ 5/ 7 1021.1 SAPELO ISLAND 0100 65 130/ 5 1020.0 $$ ANZ835-935-AMZ111-154-330-350-352-354-370-450-454-472-270200- ...C-MAN AND BUOY OBSERVATIONS... STATION/POSITION TIME TEMP WIND PRES WAVE SWELL AIR SEA DIR/SP/G HT/PER HT/PER/DIR (UTC) (F) (DEG/KT/KT) (MB) (FT/S) (FT/S/D) BUOY 41004 0050 72 74 140/ 12/ 17 1020.9R 4/10 3/140/10 BUOY 41008 0050 65 63 140/ 10/ 12 1020.1R 4/10 3/110/10 FOLLY BEACH CMAN 0000 66 150/ 9/ 9 1021.4F CAPERS NEARSHORE 0008 65 160/ 4/ 6 1020.8F FRIPP NEARSHORE 0108 63 61 150/ 4/ 6 1020.6R STATION/POSITION TIME TEMP WIND PRES WAVE SWELL AIR SEA DIR/SP/G HT/PER HT/PER/DIR (UTC) (F) (DEG/KT/KT) (MB) (FT/S) (FT/S/D) 5E ST. MARYS GA 0100 66 N/A 4/10 2/110/11 FRYING PAN BUOY 0050 71 76 140/ 12/ 17 1022.0S 4/ 8 3/130/ 8 BUOY 41025 0050 70 76 150/ 8/ 12 1023.7R 3/10 3/130/10 CAPE LOOKOUT NC 0000 66 180/ 5/ 5 1022.9R BUOY 41002 0050 67 72 80/ 14/ 17 1023.2R 5/ 9 5/140/ 9 BUOY 41010 NOT AVBL ST AUGUSTINE FL 0100 68 70 100/ 8/ 9 1020.9R $$

USA.gov is the U.S. government's official web portal to all federal, state and local government web resources and services.